APSTAR 5 (TELSTAR 18)

Last updated on Fri Jul 19 2019 04:11:53 GMT+0000 (Coordinated Universal Time)

1 28364U 04024A 19199.25529536 .00000037 00000-0 00000+0 0 9998 2 28364 0.6394 97.0221 0005276 270.7211 61.1141 0.99044739 55221

Satellite not in orbit

APSTAR 5 (TELSTAR 18)